sat.trackr.live / text

‹ back to catalog

STARLINK-11626 [DTC]

NORAD 63556 · 2025-075J

PAYLOAD ACTIVE UNKNOWN

§ Identity

Operator
Country
US
Launch date
2025-04-13
Launch site
AFETR
Launch vehicle
Mass (kg)
RCS (m²)

Purposes: comms

External: N2YO · Heavens-Above · Gunter

§ Orbital elements

Epoch: 2026-05-25T02:42:14.759712Z

Period
91.67 min
Inclination
43.0008°
Eccentricity
0.0001908
Mean motion
15.70889373 rev/d
Perigee alt
355.1 km
Apogee alt
357.6 km
Semi-major
6,734.5 km
B*
1.1892e-3
RAAN
53.5346°
Arg perigee
260.2754°
Mean anomaly
99.7899°
Rev number
6,526

§ Raw data

STARLINK-11626 [DTC]1 63556U 25075J   26145.11267083  .00155356  00000+0  11892-2 0  99972 63556  43.0008  53.5346 0001908 260.2754  99.7899 15.70889373 65263

JSON: /api/v1/satellites/63556 · /tle

For live sub-satellite position, see the globe view (requires WebGL).

§ Visibility from observer

Set your observer location to see the next 7 days of passes ≥ 10°. The values pass through the URL so the page stays shareable.

No JS? Fill the form by hand. The geolocation button needs JavaScript.